Content
SEND FEEDBACK

Daily
Averages
Monthly
Summary
Canada

VANCOUVER, BRITISH COLUMBIA


Home > North America > Canada > British Columbia
Elevation: 7 feet     Latitude: 49 11N     Longitude: 123 10W

WEATHER
 
SELECT A DAY
Number of Records: 249,704;   Date Range: 5/15/97 - 8/31/14
 
SHARE

PRINT THIS DATA

[ ← Previous Day ]
WEATHER ALMANAC - FEBRUARY 10, 2013
[ Next Day → ]
[ °C ]   °F
Weather ElementAverageHighLow
Temperature38.6 °F42.8 °F (12:35 pm)32 °F (4:35 am)
Dewpoint35.8 °F39.2 °F (9:35 pm)32 °F (4:35 am)
Humidity90.1 %100 % (12:55 am)66 % (1:15 pm)
Barometer30.34 in30.37 in (9:55 am)30.32 in (7:55 pm)
Wind Speed0.1 mph3.5 mph (10:55 am)
Weather ElementAverage
Visibility7.5 mi
Wind DirectionN (0.3 °)

Weather ElementTotal
Precipitation---
Heating Degree Days27.6 (Base 65)
Averaged from 71 records on February 10, 2013
WEATHER CONDITIONS BREAKOUT
WIND DIRECTION BREAKOUT
WEATHER BY HOUR - FEBRUARY 10, 2013
[ °C ]   °F
Local TimeTemperatureDewpointHumidityBarometerVisibilityWind DirectionWind SpeedGust SpeedPrecipitationEventsConditions
12:35 AM39.2 °F37.4 °F93 %30.34 in7.0 miCalmMostly Cloudy
12:55 AM37.4 °F37.4 °F100 %30.35 in3.0 miCalmClear
1:15 AM37.4 °F35.6 °F93 %30.35 in2.5 miCalmClear
1:35 AM35.6 °F35.6 °F100 %30.35 in2.5 miCalmClear
1:55 AM35.6 °F35.6 °F100 %30.35 in2.5 miCalmClear
2:15 AM35.6 °F35.6 °F100 %30.35 in2.0 miCalmClear
2:35 AM35.6 °F35.6 °F100 %30.36 in1.5 miCalmMostly Cloudy
2:55 AM33.8 °F33.8 °F100 %30.35 in1.8 miCalmMostly Cloudy
3:15 AM33.8 °F33.8 °F100 %30.35 in2.0 miCalmClear
3:35 AM33.8 °F33.8 °F100 %30.35 in2.5 miCalmClear
3:55 AM33.8 °F33.8 °F100 %30.35 in2.0 miCalmClear
4:15 AM33.8 °F33.8 °F100 %30.35 in2.0 miCalmClear
4:35 AM32.0 °F32.0 °F100 %30.35 in2.0 miCalmClear
4:55 AM33.8 °F33.8 °F100 %30.35 in3.0 miCalmClear
5:15 AM33.8 °F33.8 °F100 %30.35 in3.0 miCalmClear
5:35 AM33.8 °F33.8 °F100 %30.35 in5.0 miCalmClear
5:55 AM32.0 °F32.0 °F100 %30.35 in5.0 miCalmClear
6:15 AM32.0 °F32.0 °F100 %30.36 in4.0 miCalmClear
6:35 AM32.0 °F32.0 °F100 %30.36 in5.0 miCalmClear
6:55 AM32.0 °F32.0 °F100 %30.36 in6.0 miCalmClear
7:15 AM32.0 °F32.0 °F100 %30.36 in5.0 miCalmClear
7:35 AM32.0 °F32.0 °F100 %30.36 in5.0 miCalmClear
7:55 AM32.0 °F32.0 °F100 %30.36 in4.0 miNorthClear
8:15 AM32.0 °F32.0 °F100 %30.36 in3.0 miCalmClear
8:35 AM32.0 °F32.0 °F100 %30.36 in5.0 miCalmClear
8:55 AM33.8 °F33.8 °F100 %30.36 in3.0 miCalmClear
9:15 AM35.6 °F35.6 °F100 %30.36 in5.0 miCalmClear
9:35 AM37.4 °F37.4 °F100 %30.36 in9.0 miCalmClear
9:55 AM39.2 °F37.4 °F93 %30.37 in10.0 miCalmClear
10:15 AM41.0 °F37.4 °F87 %30.37 in10.0 miCalmPartly Cloudy
10:35 AM41.0 °F37.4 °F87 %30.37 in10.0 miCalmMostly Cloudy
10:55 AM41.0 °F37.4 °F87 %30.37 in10.0 miNNE (20°)3.5 mphMostly Cloudy
11:15 AM39.2 °F37.4 °F93 %30.37 in10.0 miCalmMostly Cloudy
11:35 AM41.0 °F37.4 °F87 %30.36 in10.0 miCalmMostly Cloudy
11:55 AM41.0 °F37.4 °F87 %30.36 in10.0 miCalmMostly Cloudy
12:15 PM41.0 °F37.4 °F87 %30.35 in10.0 miCalmMostly Cloudy
12:35 PM42.8 °F35.6 °F76 %30.35 in10.0 miCalmMostly Cloudy
12:55 PM42.8 °F35.6 °F76 %30.35 in10.0 miCalmScattered Clouds
1:15 PM42.8 °F32.0 °F66 %30.34 in10.0 miCalmScattered Clouds
1:35 PM42.8 °F32.0 °F66 %30.34 in10.0 miCalmOvercast
1:55 PM42.8 °F33.8 °F70 %30.33 in10.0 miCalmOvercast
2:15 PM42.8 °F32.0 °F66 %30.33 in10.0 miCalmOvercast
2:35 PM42.8 °F35.6 °F76 %30.33 in10.0 miCalmOvercast
2:55 PM42.8 °F35.6 °F76 %30.34 in10.0 miCalmOvercast
3:15 PM42.8 °F35.6 °F76 %30.34 in10.0 miCalmOvercast
3:35 PM42.8 °F37.4 °F81 %30.34 in10.0 miCalmOvercast
3:55 PM42.8 °F37.4 °F81 %30.33 in10.0 miCalmOvercast
4:15 PM42.8 °F37.4 °F81 %30.33 in10.0 miCalmOvercast
4:35 PM42.8 °F35.6 °F76 %30.33 in10.0 miCalmOvercast
4:55 PM42.8 °F35.6 °F76 %30.33 in10.0 miCalmOvercast
5:15 PM42.8 °F37.4 °F81 %30.33 in10.0 miCalmOvercast
5:35 PM42.8 °F37.4 °F81 %30.33 in10.0 miCalmOvercast
5:55 PM41.0 °F37.4 °F87 %30.33 in10.0 miCalmOvercast
6:15 PM41.0 °F37.4 °F87 %30.33 in10.0 miCalmOvercast
6:35 PM41.0 °F37.4 °F87 %30.33 in10.0 miCalmOvercast
6:55 PM41.0 °F37.4 °F87 %30.33 in10.0 miCalmOvercast
7:15 PM41.0 °F37.4 °F87 %30.33 in10.0 miCalmOvercast
7:35 PM41.0 °F37.4 °F87 %30.33 in10.0 miCalmOvercast
7:55 PM41.0 °F37.4 °F87 %30.32 in10.0 miCalmOvercast
8:15 PM41.0 °F37.4 °F87 %30.32 in10.0 miCalmOvercast
8:35 PM41.0 °F37.4 °F87 %30.32 in10.0 miCalmOvercast
8:55 PM41.0 °F37.4 °F87 %30.32 in10.0 miNorthOvercast
9:15 PM41.0 °F37.4 °F87 %30.32 in10.0 miNorthOvercast
9:35 PM41.0 °F39.2 °F93 %30.32 in10.0 miCalmOvercast
9:55 PM41.0 °F39.2 °F93 %30.32 in10.0 miCalmOvercast
10:15 PM41.0 °F39.2 °F93 %30.32 in10.0 miCalmOvercast
10:35 PM41.0 °F39.2 °F93 %30.32 in10.0 miCalmOvercast
10:55 PM41.0 °F39.2 °F93 %30.32 in10.0 miCalmOvercast
11:15 PM41.0 °F39.2 °F93 %30.32 in8.0 miCalmMostly Cloudy
11:35 PM41.0 °F39.2 °F93 %30.32 in10.0 miCalmMostly Cloudy
11:55 PM41.0 °F39.2 °F93 %30.32 in10.0 miCalmOvercast
Hourly data recorded from CZBB, located miles away from Vancouver, British Columbia







STORIES FROM OUR PARTNERS